Regional Weather Roundup
Issued by NWS Cleveland, OH

Home | Current Version | Previous Version | Graphics & Text | Print | Product List | Glossary On
Versions: 1 2 3 4 5 6 7 8 9 10 11 12 13 14 15 16 17 18 19 20 21 22 23 24 25 26 27 28 29 30 31 32 33 34 35 36 37 38 39 40 41 42 43 44 45 46 47 48 49 50
000
ASUS41 KCLE 070910
RWRCLE
OHIO REGIONAL WEATHER ROUNDUP
NATIONAL WEATHER SERVICE CLEVELAND, OH
500 AM EDT TUE JUL 07 2015

NOTE: "FAIR" INDICATES FEW OR NO CLOUDS BELOW 12,000 FEET WITH NO
SIGNIFICANT WEATHER AND/OR OBSTRUCTIONS TO VISIBILITY.

OHZ001>008-015>018-024>027-034-035-043-044-071000-
   NORTHWEST OHIO

CITY           SKY/WX    TMP DP  RH WIND       PRES   REMARKS
DEFIANCE       CLOUDY    74  69  85 S7        29.89F HAZE
FINDLAY        CLOUDY    72  67  84 S10       29.92S HAZE
TOLEDO EXPRESS CLOUDY    72  67  84 S8        29.88F
TOLEDO EXEC    CLOUDY    73  66  78 S10       29.90F
LIMA           MOCLDY    72  68  87 S9        29.94S
$$

OHZ009>014-019>023-028>033-038-089-071000-
   NORTHEAST OHIO

CITY           SKY/WX    TMP DP  RH WIND       PRES   REMARKS
CLE-HOPKINS    MOCLDY    71  62  73 S9        29.96F
CLE-LAKEFRONT  MOCLDY    74  62  66 S15       29.93S
CUY CO. ARPT   NOT AVBL
LORAIN-ELYRIA  MOCLDY    68  62  81 S7        29.95F
ASHTABULA      CLEAR     67  66  97 S5        29.97S
AKRON-CANTON   PTCLDY    69  63  81 S8        30.00S
WOOSTER        PTCLDY    65  62  90 S7        29.99S
MANSFIELD      PTCLDY    68  64  87 S12       29.98F
YOUNGSTOWN     PTCLDY    67  65  93 S6        30.00R
$$

OHZ042-051>053-060>062-070>072-077>081-071000-
  SOUTHWEST OHIO

CITY           SKY/WX    TMP DP  RH WIND       PRES   REMARKS
CINC-COVINGTON CLOUDY    73  69  87 S8        29.99F
CINC-LUNKEN    MOCLDY    72  69  90 SW6       29.99S
HAMILTON       CLOUDY    76  71  85 SW3       29.99S
DAYTON         CLOUDY    74  70  87 S12       29.98S
WRIGHT-PAT AFB CLOUDY    72  69  91 S7        29.97S
DAYTON GENERAL MOCLDY    72  69  90 S9        29.98S
WILMINGTON     PTCLDY    70  67  90 S7        30.00S FOG
$$

OHZ036-037-039>041-045>050-054>059-063>069-073>076-082>088-071000-
  CENTRAL AND SOUTHEAST OHIO

CITY           SKY/WX    TMP DP  RH WIND       PRES   REMARKS
COLUMBUS       CLEAR     70  66  87 S7        29.99S
OSU AIRPORT    PTCLDY    70  66  87 S8        29.99S
BOLTON FIELD   PTCLDY    67  66  97 S7        30.00S FOG
RICKENBACK AFB CLEAR     68  65  92 S8        29.99S FOG
NEWARK         CLEAR     64  62  93 CALM      30.00S
MARION         PTCLDY    70  66  87 S9        29.97S FOG
LANCASTER      CLEAR     69  65  86 S3        30.01R
ZANESVILLE     NOT AVBL
NEW PHILLY     CLEAR     66  66 100 SE3       30.01S FOG
$$


USA.gov is the U.S. government's official web portal to all federal, state and local government web resources and services.